Change the Weather History Date:

Sunday, January 13, 2013

  Actual Average Record
Temperature  
Mean Temperature 56 °F -  
Max Temperature 60 °F 31 °F 60 °F (2013)
Min Temperature 51 °F 18 °F -2 °F (1997)
Degree Days  
Heating Degree Days 10    
Growing Degree Days 6 (Base 50)    
Moisture  
Dew Point 53 °F    
Average Humidity 93    
Maximum Humidity 100    
Minimum Humidity 63    
Precipitation  
Precipitation 0.00 in - - ()
Sea Level Pressure  
Sea Level Pressure 30.12 in    
Wind  
Wind Speed 10 mph (SSW)    
Max Wind Speed 17 mph    
Max Gust Speed 25 mph    
Visibility 7 miles    
Events Fog , Rain    
Averages and records for this station are not official NWS values.
T = Trace of Precipitation, MM = Missing Value Source: NWS Daily Summary

Daily Weather History Graph

Daily Weather History Graph

Search for Another Location

Airport or City:

Trip Planner

Search our weather history database for the weather conditions in past years. The results will help you decide how hot, cold, wet, or windy it might be!

Date:

Astronomy

Jan. 13, 2013 Rise Set
Actual Time 7:34 AM EST 5:22 PM EST
Civil Twilight 7:05 AM EST 5:50 PM EST
Nautical Twilight 6:33 AM EST 6:23 PM EST
Astronomical Twilight 6:01 AM EST 6:55 PM EST
Moon 8:34 AM EST (1/13) 7:55 PM EST (1/13)
Length of Visible Light 10h 45m
Length of Day
9h 47m
Waxing Crescent, 5% of the Moon is Illuminated
Jan 13
Waxing Crescent
Jan 18
First Quarter
Jan 26
Full
Feb 3
Last Quarter
Feb 10
New

Hourly Weather History & Observations

Time (EST) Temp. Dew Point Humidity Pressure Visibility Wind Dir Wind Speed Gust Speed Precip Events Conditions
12:15 AM 55.4 °F 55.4 °F 100% 30.15 in 10.0 mi South 10.4 mph 16.1 mph N/A   Scattered Clouds
12:35 AM 55.4 °F 55.4 °F 100% 30.15 in 7.0 mi South 11.5 mph 18.4 mph N/A   Scattered Clouds
12:55 AM 55.4 °F 55.4 °F 100% 30.15 in 0.2 mi SE 8.1 mph - N/A Fog Fog
1:15 AM 53.6 °F 53.6 °F 100% 30.15 in 0.2 mi SE 6.9 mph - N/A Fog Fog
1:35 AM 53.6 °F 53.6 °F 100% 30.16 in 0.2 mi SSE 8.1 mph - N/A Rain Rain
1:55 AM 53.6 °F 53.6 °F 100% 30.15 in 0.2 mi SSE 5.8 mph - N/A Rain Light Rain
2:15 AM 53.6 °F 53.6 °F 100% 30.15 in 0.2 mi South 3.5 mph - N/A Rain Light Rain
2:35 AM 53.6 °F 53.6 °F 100% 30.14 in 0.2 mi SSE 5.8 mph - N/A Rain Light Rain
2:55 AM 53.6 °F 53.6 °F 100% 30.15 in 5.0 mi South 12.7 mph 18.4 mph N/A   Overcast
3:15 AM 53.6 °F 53.6 °F 100% 30.14 in 1.2 mi SSE 11.5 mph 17.3 mph N/A   Overcast
3:35 AM 53.6 °F 53.6 °F 100% 30.12 in 5.0 mi South 16.1 mph 24.2 mph N/A   Overcast
3:55 AM 53.6 °F 53.6 °F 100% 30.11 in 5.0 mi South 13.8 mph 23.0 mph N/A   Overcast
4:15 AM 53.6 °F 53.6 °F 100% 30.11 in 5.0 mi South 17.3 mph 25.3 mph N/A   Overcast
4:35 AM 53.6 °F 53.6 °F 100% 30.09 in 0.5 mi South 10.4 mph 23.0 mph N/A Fog Fog
4:55 AM 53.6 °F 53.6 °F 100% 30.09 in 0.8 mi South 16.1 mph 24.2 mph N/A   Overcast
5:15 AM 51.8 °F 51.8 °F 100% 30.09 in 3.0 mi South 15.0 mph 24.2 mph N/A   Overcast
5:35 AM 51.8 °F 51.8 °F 100% 30.09 in 10.0 mi South 10.4 mph 23.0 mph N/A   Scattered Clouds
5:55 AM 51.8 °F 51.8 °F 100% 30.10 in 10.0 mi South 15.0 mph 21.9 mph N/A   Scattered Clouds
6:15 AM 53.6 °F 53.6 °F 100% 30.10 in 7.0 mi South 12.7 mph 20.7 mph N/A   Mostly Cloudy
6:35 AM 51.8 °F 51.8 °F 100% 30.10 in 3.0 mi South 11.5 mph 23.0 mph N/A   Overcast
6:55 AM 51.8 °F 51.8 °F 100% 30.11 in 5.0 mi SSW 9.2 mph - N/A   Overcast
7:15 AM 51.8 °F 51.8 °F 100% 30.12 in 0.8 mi South 8.1 mph - N/A   Overcast
7:35 AM 51.8 °F 51.8 °F 100% 30.12 in 0.5 mi South 8.1 mph - N/A Fog Fog
7:55 AM 51.8 °F 51.8 °F 100% 30.12 in 0.2 mi South 9.2 mph - N/A Fog Fog
8:15 AM 51.8 °F 51.8 °F 100% 30.13 in 2.5 mi SSW 8.1 mph - N/A   Mostly Cloudy
8:35 AM 53.6 °F 51.8 °F 94% 30.14 in 10.0 mi SW 13.8 mph 19.6 mph N/A   Scattered Clouds
8:55 AM 53.6 °F 51.8 °F 94% 30.16 in 10.0 mi WSW 13.8 mph 18.4 mph N/A   Clear
9:15 AM 53.6 °F 51.8 °F 94% 30.16 in 10.0 mi WSW 15.0 mph - N/A   Clear
9:35 AM 53.6 °F 51.8 °F 94% 30.16 in 10.0 mi WSW 13.8 mph - N/A   Clear
9:55 AM 53.6 °F 51.8 °F 94% 30.16 in 10.0 mi WSW 13.8 mph - N/A   Clear
10:15 AM 55.4 °F 51.8 °F 88% 30.16 in 10.0 mi West 12.7 mph - N/A   Clear
10:35 AM 55.4 °F 51.8 °F 88% 30.16 in 10.0 mi West 11.5 mph - N/A   Clear
10:55 AM 57.2 °F 51.8 °F 82% 30.16 in 10.0 mi West 12.7 mph 18.4 mph N/A   Clear
11:15 AM 57.2 °F 51.8 °F 82% 30.14 in 10.0 mi West 11.5 mph - N/A   Clear
11:35 AM 57.2 °F 51.8 °F 82% 30.13 in 10.0 mi West 15.0 mph 20.7 mph N/A   Clear
11:55 AM 57.2 °F 50.0 °F 77% 30.12 in 10.0 mi West 12.7 mph 18.4 mph N/A   Clear
12:15 PM 57.2 °F 50.0 °F 77% 30.11 in 10.0 mi West 16.1 mph 23.0 mph N/A   Clear
12:35 PM 57.2 °F 50.0 °F 77% 30.10 in 10.0 mi WSW 13.8 mph 21.9 mph N/A   Clear
1:15 PM 59.0 °F 50.0 °F 72% 30.09 in 10.0 mi WSW 11.5 mph - N/A   Clear
1:55 PM 59.0 °F 48.2 °F 67% 30.09 in 10.0 mi WSW 12.7 mph 18.4 mph N/A   Clear
2:15 PM 60.8 °F 48.2 °F 63% 30.10 in 10.0 mi WSW 11.5 mph - N/A   Mostly Cloudy
2:35 PM 59.0 °F 50.0 °F 72% 30.10 in 10.0 mi SSE 3.5 mph - N/A   Mostly Cloudy
2:55 PM 57.2 °F 51.8 °F 82% 30.10 in 10.0 mi South 3.5 mph - N/A   Scattered Clouds
3:15 PM 55.4 °F 53.6 °F 94% 30.11 in 10.0 mi South 4.6 mph - N/A   Mostly Cloudy
3:35 PM 57.2 °F 53.6 °F 88% 30.11 in 10.0 mi South 3.5 mph - N/A   Mostly Cloudy
3:55 PM 57.2 °F 51.8 °F 82% 30.11 in 10.0 mi South 6.9 mph - N/A   Scattered Clouds
4:15 PM 57.2 °F 53.6 °F 88% 30.12 in 10.0 mi South 6.9 mph - N/A   Mostly Cloudy
4:35 PM 57.2 °F 53.6 °F 88% 30.12 in 10.0 mi South 9.2 mph - N/A   Overcast
4:55 PM 57.2 °F 53.6 °F 88% 30.12 in 10.0 mi South 8.1 mph - N/A   Overcast
5:15 PM 55.4 °F 53.6 °F 94% 30.12 in 10.0 mi SSE 8.1 mph - N/A   Overcast
5:35 PM 55.4 °F 53.6 °F 94% 30.11 in 10.0 mi South 8.1 mph - N/A   Overcast
5:55 PM 55.4 °F 53.6 °F 94% 30.11 in 10.0 mi South 6.9 mph - N/A   Mostly Cloudy
6:15 PM 55.4 °F 53.6 °F 94% 30.11 in 10.0 mi SSE 6.9 mph - N/A   Scattered Clouds
6:35 PM 55.4 °F 55.4 °F 100% 30.11 in 7.0 mi SSE 6.9 mph - N/A   Overcast
7:15 PM 55.4 °F 53.6 °F 94% 30.10 in 7.0 mi South 8.1 mph - N/A   Overcast
7:35 PM 55.4 °F 53.6 °F 94% 30.09 in 7.0 mi South 9.2 mph - N/A   Overcast
7:55 PM 53.6 °F 53.6 °F 100% 30.09 in 7.0 mi South 6.9 mph - N/A   Overcast
8:15 PM 53.6 °F 53.6 °F 100% 30.09 in 7.0 mi South 5.8 mph - N/A   Mostly Cloudy
8:35 PM 53.6 °F 53.6 °F 100% 30.09 in 7.0 mi South 6.9 mph - N/A   Mostly Cloudy
8:55 PM 53.6 °F 53.6 °F 100% 30.09 in 10.0 mi SSW 10.4 mph 17.3 mph N/A   Mostly Cloudy
9:15 PM 55.4 °F 53.6 °F 94% 30.09 in 10.0 mi SSW 15.0 mph 20.7 mph N/A   Scattered Clouds
9:35 PM 55.4 °F 53.6 °F 94% 30.08 in 10.0 mi South 9.2 mph 19.6 mph N/A   Clear
9:55 PM 55.4 °F 53.6 °F 94% 30.07 in 10.0 mi South 16.1 mph 21.9 mph N/A   Clear
10:15 PM 55.4 °F 53.6 °F 94% 30.08 in 10.0 mi SSW 10.4 mph - N/A   Clear
10:35 PM 55.4 °F 53.6 °F 94% 30.09 in 10.0 mi SSW 9.2 mph - N/A   Clear
10:55 PM 55.4 °F 53.6 °F 94% 30.10 in 10.0 mi SW 12.7 mph 18.4 mph N/A   Mostly Cloudy
11:15 PM 55.4 °F 53.6 °F 94% 30.10 in 10.0 mi SW 17.3 mph 24.2 mph N/A   Overcast
11:35 PM 55.4 °F 53.6 °F 94% 30.11 in 10.0 mi WSW 12.7 mph - N/A   Overcast
11:55 PM 55.4 °F 53.6 °F 94% 30.11 in 10.0 mi WSW 16.1 mph - N/A   Overcast